RH
87 86 94 96 96 94 92 88 64 41 35 46 66 68 66 72 82 92 93 94 92 88 93 96 93 87 76 58 46 44 40 40 44 48 50 49 46 40 35 31 27 28 31 31 29 28 29 28 27 28 30 32 33 31 31 28 27 29 32 31 24 22 22 32 51 44 33 35 37 40 40 38 35 26 15 9 7 6 6 5 6 9 18 27 30 34 41 47
86 84 87 89 88 84 83 78 48 26 28 37 61 74 67 73 88 95 94 93 88 85 89 88 81 67 47 35 38 47 49 53 58 57 50 41 38 34 33 33 32 33 33 33 32 31 32 31 30 31 31 30 29 26 25 26 25 24 27 24 18 19 17 26 46 44 37 34 31 31 28 23 18 11 6 5 5 4 5 4 6 15 27 32 30 31 35 37
76 75 76 76 75 76 75 63 42 28 25 21 41 68 71 77 91 96 95 91 87 87 84 74 66 51 38 42 49 53 55 56 54 45 36 31 31 30 31 32 31 31 30 30 29 29 28 29 28 28 27 24 23 20 19 24 25 23 25 22 17 19 17 20 36 39 36 34 25 16 11 9 7 6 6 5 4 3 4 5 8 14 23 30 29 28 28 30
71 70 67 66 67 71 64 47 35 27 23 16 21 41 53 63 75 79 82 82 83 80 67 55 51 48 48 51 49 46 44 41 37 33 30 29 28 28 28 27 27 25 24 22 20 20 19 20 20 19 19 18 16 15 16 21 23 23 22 19 15 18 18 14 22 26 24 22 16 10 6 6 5 5 5 5 4 3 6 8 10 11 14 21 25 24 22 22
68 69 65 62 61 60 52 40 37 28 21 18 19 26 27 34 44 49 55 63 67 61 51 45 42 43 41 37 33 31 29 30 30 29 26 24 22 21 20 19 19 18 16 15 14 14 15 15 15 15 15 13 13 12 15 20 24 24 21 19 16 18 17 10 13 17 15 12 9 7 6 5 4 4 4 5 5 5 9 9 9 11 11 13 14 13 11 10
60 64 66 65 60 56 53 48 44 32 23 19 20 24 22 24 26 26 30 37 41 39 37 35 31 29 25 21 20 19 20 25 26 23 19 16 14 13 12 13 13 13 13 13 14 14 14 13 13 12 11 10 11 12 16 21 25 24 19 19 17 16 13 8 11 13 11 9 7 6 4 4 4 4 4 6 8 8 9 9 11 13 11 9 6 6 6 5
54 53 54 58 59 55 53 54 53 45 37 29 21 19 22 26 22 18 19 21 22 23 23 22 21 19 18 17 16 16 17 17 17 15 13 11 11 11 12 12 13 13 14 14 14 13 11 10 10 9 9 9 10 12 15 17 20 19 13 13 11 11 8 6 8 7 6 6 5 5 3 4 4 4 6 8 9 8 9 10 12 10 7 6 5 5 5 5
54 50 41 39 45 46 44 46 53 53 44 35 27 19 20 23 20 18 19 18 17 17 16 15 15 15 15 15 16 17 17 14 13 12 11 11 12 12 13 13 14 14 14 14 12 11 10 9 9 8 8 8 9 11 12 11 12 11 8 7 7 6 5 4 5 4 5 5 4 5 4 5 5 6 8 10 10 9 9 9 8 7 6 7 7 8 8 8
52 51 37 25 28 37 41 37 40 46 39 31 27 22 20 20 18 18 18 18 17 16 16 14 14 14 15 17 19 18 16 17 16 14 14 13 14 14 14 14 13 13 13 13 11 11 10 8 7 7 6 6 7 7 8 8 7 7 6 6 5 5 5 5 5 4 5 4 4 5 5 7 7 8 13 15 14 11 9 8 8 8 9 9 9 9 9 10
52 48 32 21 21 27 35 33 28 32 32 25 22 23 27 26 22 20 19 19 18 18 19 18 18 19 20 21 22 19 18 21 19 16 14 14 15 14 13 13 13 13 13 12 11 11 9 7 6 5 5 5 6 6 7 6 5 6 6 6 5 5 5 5 4 5 5 5 6 6 8 12 10 10 16 19 17 12 10 12 13 11 11 11 10 11 11 11
51 40 24 21 21 20 26 30 26 24 23 17 13 17 24 28 29 28 27 26 26 26 25 23 22 23 23 23 22 20 20 21 18 15 14 14 14 13 13 13 13 13 13 13 12 11 9 6 5 5 5 5 6 6 6 6 6 7 5 5 5 5 6 7 7 7 8 7 7 7 10 16 16 15 19 20 18 15 15 17 17 15 14 14 13 13 13 12
44 30 22 21 18 17 20 24 26 24 19 13 11 12 13 18 24 28 30 31 31 30 28 26 25 24 23 21 19 17 16 16 13 13 13 13 13 13 13 13 14 14 14 14 12 10 8 6 5 4 5 5 5 5 6 7 7 6 5 5 7 9 10 11 12 13 12 12 10 9 10 17 21 21 23 23 21 19 18 19 19 18 17 17 16 16 15 13
34 23 21 18 14 15 15 17 20 20 16 11 11 11 9 10 13 18 23 25 26 26 24 24 22 20 18 16 15 14 13 13 12 13 13 13 13 13 14 14 14 14 15 14 11 9 6 5 4 4 4 4 5 5 6 7 6 7 8 10 12 13 12 13 16 18 17 16 16 14 12 20 24 22 24 25 23 21 21 21 20 19 19 20 19 18 17 14
25 20 16 13 14 15 13 14 15 14 13 11 10 10 10 10 9 11 12 13 15 15 16 16 15 13 13 13 14 14 13 12 13 13 13 14 14 14 14 14 14 14 14 12 9 7 6 5 4 4 5 5 6 6 6 6 7 10 13 18 22 18 15 17 20 21 22 21 21 20 16 19 22 20 22 24 23 21 19 19 19 21 22 22 22 20 18 14
19 16 15 16 17 19 19 20 19 18 17 15 14 12 12 11 11 11 10 11 11 11 12 12 12 12 12 13 14 14 14 14 14 14 15 15 14 13 12 12 12 12 11 9 7 6 5 4 5 5 6 7 7 7 6 7 13 19 21 24 28 24 18 21 24 24 25 22 21 22 18 17 18 17 19 20 20 18 18 19 22 25 25 25 24 22 18 14
17 17 19 23 26 28 29 28 28 28 26 24 22 20 18 15 14 14 13 13 12 12 13 12 13 12 12 14 16 17 17 16 15 15 14 14 13 11 9 8 8 9 8 7 6 5 5 5 6 6 7 8 8 10 9 11 20 26 28 28 29 27 21 19 23 24 21 17 20 24 22 21 20 20 19 18 19 20 22 25 27 28 27 27 25 22 18 15
20 24 27 29 32 33 32 32 31 31 30 29 27 26 24 22 21 20 18 18 17 16 14 14 14 13 14 17 18 18 17 15 14 14 14 12 11 9 7 7 7 8 8 6 5 6 8 8 8 8 8 10 17 22 19 20 26 28 30 30 26 24 21 17 16 16 15 15 22 27 26 27 26 24 22 19 18 20 24 28 28 29 27 26 23 21 19 17
26 30 32 32 33 32 31 31 30 30 30 29 27 27 26 26 26 25 23 24 23 21 20 19 18 17 20 22 21 19 18 17 16 15 14 11 10 8 8 8 8 8 6 6 7 9 11 9 8 8 8 16 29 34 29 29 32 32 33 32 25 21 16 12 10 12 17 21 26 30 31 33 31 27 25 21 20 20 23 26 27 27 25 25 23 21 20 19
31 32 33 33 32 32 31 29 28 28 26 26 25 25 25 25 26 27 26 25 24 22 23 24 22 21 22 22 21 21 19 17 15 14 12 10 9 9 9 9 8 8 6 6 9 10 10 7 9 11 12 19 29 33 34 34 34 34 34 33 30 24 14 9 12 18 25 30 34 34 33 34 31 28 26 24 23 22 23 25 25 26 26 25 24 23 22 21
31 31 31 32 33 33 32 30 31 31 28 26 23 23 23 22 25 28 24 21 21 20 20 20 20 19 19 18 16 17 15 13 12 11 11 9 9 9 10 10 9 8 8 9 9 11 10 9 14 18 17 19 22 26 30 29 28 27 25 23 21 18 15 15 20 25 30 35 37 33 28 27 25 24 24 24 24 24 25 26 27 26 26 26 25 24 24 22
30 30 31 32 33 34 34 33 34 36 34 30 26 25 23 20 22 24 19 16 16 15 14 14 14 14 15 14 13 12 11 11 10 10 10 9 10 10 10 9 8 7 9 10 10 13 13 12 17 22 23 23 23 24 22 19 17 15 14 14 13 16 19 23 28 32 34 34 30 23 18 18 21 24 26 25 25 26 27 28 28 28 28 28 26 25 26 25
28 30 31 32 32 33 35 36 36 37 38 35 31 30 28 23 20 17 13 13 13 12 12 13 14 15 15 15 14 13 12 12 13 12 11 11 10 9 9 9 8 7 9 13 14 15 14 14 21 26 29 28 23 21 18 14 13 13 15 14 16 23 26 28 35 37 33 28 19 14 14 19 26 30 31 30 30 31 32 32 32 31 30 29 29 28 28 28
29 31 31 30 30 31 33 36 37 36 38 36 34 33 32 27 21 15 11 11 16 18 18 18 19 18 17 16 15 14 13 10 12 12 10 11 9 8 9 9 9 9 11 14 15 14 14 16 19 21 23 21 18 16 14 14 16 18 18 16 21 31 32 31 31 28 24 18 13 15 20 26 31 33 35 35 36 37 38 38 36 34 33 31 30 30 29 29
32 32 31 30 27 28 31 34 36 35 37 36 34 34 33 29 23 16 11 14 22 25 24 23 22 21 17 15 14 12 10 9 11 12 11 11 10 10 10 9 10 10 10 14 14 14 14 15 15 16 18 17 15 15 14 19 23 21 18 20 24 27 25 22 19 17 14 12 15 20 28 36 37 40 44 41 41 43 43 42 40 36 35 34 33 33 31 30
33 33 33 32 29 28 28 31 33 33 35 35 35 35 34 30 24 16 11 16 24 26 27 26 23 24 18 14 12 9 10 15 16 14 13 11 10 11 10 10 11 9 11 13 12 13 14 17 19 19 18 15 14 15 17 22 22 17 18 21 21 17 16 14 13 15 11 11 18 25 39 48 44 47 53 50 47 48 47 44 42 39 36 36 35 34 32 31
33 34 33 35 33 30 27 28 31 31 33 34 35 35 33 30 24 15 10 18 29 30 27 25 24 24 17 11 9 9 14 18 16 14 12 10 11 11 9 10 10 10 13 12 11 17 21 21 20 17 14 14 16 18 19 19 16 16 19 17 13 11 10 8 11 18 19 19 20 24 40 50 49 54 56 54 55 53 52 50 46 42 39 37 37 36 35 35
31 33 33 35 33 30 27 27 29 31 32 33 34 33 33 30 21 12 15 29 37 29 23 24 25 20 14 10 9 9 13 13 13 13 10 9 9 9 9 10 10 10 12 11 13 22 24 18 16 15 14 16 18 17 17 15 13 15 13 9 7 6 5 9 17 23 26 27 19 17 32 41 50 62 63 62 64 61 58 54 50 47 44 42 40 40 42 42
31 31 32 32 29 26 25 27 30 31 32 33 32 32 31 26 15 11 27 42 36 23 22 26 25 16 11 12 10 9 10 10 11 11 8 10 10 9 11 13 13 12 13 15 16 20 20 17 17 17 17 18 18 17 16 12 9 10 7 4 5 6 7 12 17 19 27 37 26 16 28 41 56 70 71 73 72 66 61 57 56 55 51 51 49 48 50 50
30 29 28 28 26 27 28 30 31 31 32 30 30 32 27 19 11 13 31 38 25 18 23 24 19 13 11 13 12 10 10 10 10 10 9 10 10 10 13 14 14 14 16 19 19 19 20 20 21 20 19 20 19 17 13 7 5 4 3 5 7 8 7 5 12 17 30 43 33 22 27 36 56 71 72 76 74 68 63 61 64 64 60 60 59 59 60 59
24 24 26 27 29 30 30 30 30 29 29 28 30 30 20 12 13 25 34 27 17 19 23 20 13 11 12 12 11 10 11 11 10 10 10 11 13 12 13 15 15 20 21 19 19 22 23 24 24 22 20 21 20 16 9 4 4 2 6 10 6 6 6 6 16 23 35 46 33 26 26 21 39 62 65 68 68 65 65 67 70 70 68 69 67 68 70 68
18 19 22 23 24 25 25 25 26 26 27 29 29 22 13 12 18 31 32 20 17 21 21 18 11 10 13 12 10 11 12 12 11 11 10 12 16 12 13 14 16 24 21 14 19 24 23 25 24 23 23 21 18 12 6 3 3 6 13 10 4 9 11 15 25 29 49 59 33 20 22 14 26 48 54 58 60 62 69 73 74 72 72 74 74 76 77 75
16 17 18 18 19 20 22 23 24 26 28 28 24 12 11 22 25 24 21 19 23 20 14 14 11 11 13 11 10 11 14 15 14 14 12 14 16 14 15 16 15 18 13 12 20 18 16 22 25 25 23 20 16 10 6 6 7 12 12 6 15 32 34 39 46 43 51 50 22 13 19 18 26 35 41 51 58 65 71 75 77 78 80 82 81 81 79 78
16 18 19 19 21 22 23 25 26 28 26 21 15 8 13 28 26 16 15 19 22 15 9 12 12 11 14 15 13 11 15 17 15 17 18 19 21 20 17 15 14 11 8 15 19 10 13 24 26 24 20 17 15 9 8 10 15 18 10 11 30 45 54 66 64 51 47 35 15 15 23 32 43 42 40 51 67 77 82 86 90 89 90 89 84 83 80 75
16 18 20 21 24 25 25 26 25 23 19 14 10 10 17 23 20 16 15 12 13 12 10 13 15 17 20 21 18 12 13 17 17 22 26 23 23 22 15 11 10 5 5 14 15 14 26 28 21 19 17 18 15 12 14 16 23 22 12 19 31 32 48 67 59 47 45 36 22 21 31 45 59 60 56 63 77 90 95 97 98 95 92 89 84 80 75 69
15 18 21 23 24 24 22 21 19 15 13 10 8 13 20 19 16 19 17 10 10 10 12 17 19 24 25 23 22 15 13 18 20 23 27 24 24 23 15 9 7 3 3 7 10 21 30 23 16 16 17 21 16 14 21 21 24 23 12 18 26 23 34 46 41 32 33 42 39 32 38 50 62 70 70 71 81 94 100 99 96 94 89 84 78 73 68 63
16 18 20 21 20 18 16 15 13 11 11 9 10 17 21 18 15 16 13 10 11 9 15 22 19 21 23 20 21 18 14 21 24 23 24 23 25 23 16 12 9 4 3 6 14 26 25 15 15 16 18 24 18 15 24 25 25 22 16 19 23 24 29 32 34 30 32 51 49 30 32 47 64 76 72 74 88 97 100 98 94 90 84 76 70 66 63 58
15 15 15 14 14 13 12 11 10 10 10 9 13 17 17 15 14 13 9 10 11 9 14 18 14 15 16 14 18 16 14 21 25 24 23 24 24 20 18 17 11 5 4 7 16 25 22 15 17 22 27 27 18 16 24 28 30 24 20 27 29 29 32 33 42 46 50 61 50 27 25 33 53 73 74 78 91 98 100 97 92 84 74 68 64 61 58 51
10 11 10 9 10 9 9 10 10 11 11 9 12 14 13 12 12 11 9 10 11 10 10 11 11 13 13 13 16 12 8 15 21 22 25 26 22 20 23 19 10 5 4 6 12 15 16 19 23 29 33 25 16 18 24 28 32 27 26 36 37 35 39 41 46 52 59 65 56 39 29 27 45 71 85 91 93 95 94 85 79 74 65 60 58 52 48 43
8 8 8 8 10 9 9 10 10 10 11 10 10 12 11 11 10 10 10 9 11 11 9 9 12 14 14 14 12 6 5 11 16 20 22 22 20 21 23 16 7 5 4 7 12 9 14 26 27 25 26 18 11 15 24 29 31 30 32 37 34 33 42 48 45 45 55 62 62 59 49 42 55 69 80 92 92 85 80 73 71 68 58 54 51 47 43 38
6 5 8 9 9 9 8 9 9 9 11 10 10 11 11 10 10 9 9 9 11 12 11 13 15 15 12 9 6 3 6 9 11 14 15 15 18 20 18 10 5 5 4 7 10 7 13 22 19 14 15 11 8 13 25 32 32 31 30 29 28 27 32 42 40 36 47 60 67 75 65 46 52 62 64 77 87 80 75 74 69 59 50 49 48 45 41 33
4 5 7 7 6 6 6 7 8 8 10 9 9 11 11 10 10 8 9 11 13 14 15 15 15 10 5 4 3 3 6 8 7 10 11 11 13 13 10 6 4 4 4 6 8 8 8 11 14 16 13 7 7 16 27 34 33 32 30 23 20 19 22 43 55 41 39 52 58 70 70 51 52 64 65 73 82 79 74 67 57 50 48 48 46 42 36 28
5 5 6 5 5 6 6 7 7 8 9 8 9 11 10 9 9 10 11 13 15 15 15 12 8 4 2 2 3 2 5 10 8 7 8 8 8 7 5 4 4 4 4 5 9 9 8 15 23 20 12 7 11 18 27 36 37 34 29 17 14 16 21 44 61 50 46 56 58 68 79 72 70 75 75 77 77 72 65 55 47 47 47 46 42 35 27 20
5 5 6 5 5 6 7 7 7 8 9 9 10 10 9 10 12 13 14 16 16 14 10 6 3 3 2 2 4 2 5 11 12 7 4 4 5 4 4 4 4 4 4 6 12 10 12 23 24 12 8 7 9 16 24 32 33 28 21 13 16 22 27 40 49 52 66 71 68 79 83 72 72 77 76 73 66 55 48 41 42 43 40 38 34 27 22 19
6 6 6 6 6 9 9 8 7 8 8 9 9 9 10 13 14 15 16 14 12 7 4 2 2 3 3 2 4 3 3 8 10 6 4 3 4 4 3 3 3 4 5 7 10 8 10 18 17 17 26 24 19 24 29 27 25 23 20 18 21 26 36 48 50 61 82 76 68 89 89 64 63 71 63 53 45 38 36 36 38 40 38 36 33 27 25 23
7 6 7 7 8 11 11 7 7 8 7 8 9 10 13 15 14 15 14 8 5 3 2 3 3 3 3 3 4 4 3 4 5 5 4 3 3 4 3 3 4 5 6 8 9 7 9 11 12 24 41 42 37 38 37 32 28 23 18 20 26 32 39 47 51 66 83 75 68 84 84 64 57 55 41 31 32 38 40 41 41 42 42 39 34 31 29 29
8 8 8 8 8 9 8 6 7 8 8 9 11 12 14 15 14 11 8 3 2 2 2 3 3 4 4 3 4 4 3 4 5 4 3 3 3 3 3 4 4 5 8 9 9 8 9 10 13 24 35 37 36 33 29 30 27 20 19 23 31 39 39 41 50 61 67 73 75 73 72 68 53 38 30 30 39 48 47 45 46 45 43 38 33 30 29 34
9 9 8 8 9 7 6 6 7 8 10 11 13 14 14 13 10 6 4 2 2 3 3 3 4 4 4 4 4 3 3 5 6 4 3 3 3 3 4 4 5 7 8 9 10 10 10 11 15 24 28 27 26 22 19 22 22 21 28 34 35 40 41 41 49 54 61 82 87 68 62 64 47 33 34 40 48 51 48 47 48 48 47 40 31 29 33 40
8 8 8 11 11 7 6 7 8 9 12 13 14 14 11 8 5 3 3 2 2 4 4 3 4 4 4 4 4 3 3 4 5 4 3 3 4 4 5 5 6 7 8 9 10 11 12 14 17 20 21 19 17 17 18 20 22 24 32 36 36 39 43 43 47 54 66 82 80 64 59 57 43 38 42 47 51 51 49 49 51 55 52 40 36 43 50 53
7 6 7 9 9 7 7 9 10 11 13 13 13 11 6 3 2 2 3 3 3 4 4 4 5 4 4 4 4 4 4 3 4 3 3 4 4 5 6 7 8 8 9 11 11 12 15 17 18 18 18 16 14 15 18 20 23 24 25 31 35 38 42 47 52 59 68 73 70 67 64 53 43 45 48 49 51 51 51 51 57 67 65 56 62 72 70 66
7 7 7 8 8 9 10 11 12 13 13 12 9 5 2 2 2 2 3 3 3 4 4 5 5 4 4 4 4 4 3 3 4 3 4 5 5 6 7 8 10 10 11 12 13 15 17 18 19 19 18 15 13 16 19 22 26 26 24 31 39 41 44 48 51 57 65 68 67 64 60 50 46 49 51 51 53 55 55 59 74 86 82 79 82 76 69 71
10 10 10 10 10 12 12 11 13 13 11 8 4 2 2 2 2 3 3 3 4 4 5 5 5 5 5 4 4 4 4 4 4 4 5 6 6 8 9 10 12 12 13 15 15 16 18 19 21 23 23 17 14 19 23 23 27 28 28 33 38 40 43 45 48 56 61 64 65 63 61 56 50 51 54 55 58 61 62 74 91 89 71 69 74 66 63 73
11 11 11 11 12 12 11 12 14 11 6 3 2 2 2 2 3 3 4 4 5 5 5 5 5 4 4 4 4 4 4 5 5 6 6 7 8 9 11 12 13 13 14 16 16 17 20 23 25 31 33 23 16 24 30 32 37 34 29 33 38 41 46 47 50 58 60 65 71 69 63 58 55 60 66 64 62 64 68 77 81 65 46 50 65 70 75 83
Wind_Speed
4 8 10 11 11 10 10 7 6 6 5 6 8 8 10 12 12 14 16 13 13 14 13 12 12 11 10 9 8 6 5 6 6 6 6 7 7 7 7 7 7 7 7 8 8 8 9 9 9 9 9 10 10 10 11 10 7 9 11 14 14 12 10 5 7 15 15 17 21 22 24 25 25 24 25 26 25 25 24 22 21 14 7 10 15 15 13 15
4 4 7 8 9 9 8 8 8 8 7 5 4 3 6 9 9 8 9 6 6 7 8 9 10 10 11 9 8 7 6 7 7 6 6 7 6 6 6 6 7 7 8 9 9 9 9 10 10 10 11 12 11 11 10 10 9 10 12 16 15 11 9 6 10 17 18 21 23 24 26 26 27 26 25 25 23 23 21 20 17 6 1 7 14 14 13 16
7 5 4 5 6 8 9 10 11 10 8 5 4 5 6 9 9 8 6 5 5 6 6 7 8 9 9 8 7 6 6 6 5 4 6 7 6 6 7 7 8 8 9 9 9 9 10 11 11 11 12 12 11 11 10 9 10 11 14 17 14 11 11 10 13 18 20 24 26 25 24 24 24 24 24 23 21 19 18 17 13 6 6 9 14 16 17 18
8 6 3 5 7 9 11 12 12 10 7 5 5 6 7 8 9 8 7 6 6 6 7 8 9 8 7 6 6 5 5 5 4 5 7 6 6 6 6 7 8 8 8 9 9 9 10 11 12 11 12 11 10 11 9 9 11 13 15 17 15 13 15 14 13 17 20 23 24 23 23 23 22 22 21 21 20 16 14 12 10 10 10 11 15 18 20 19
10 6 4 5 7 10 11 11 10 9 7 6 5 6 7 7 8 8 8 7 7 7 7 7 7 7 6 6 5 4 4 4 4 6 5 4 5 5 6 7 8 8 9 9 9 9 10 10 10 10 10 10 9 9 8 7 10 15 17 17 17 16 18 18 15 17 20 22 22 22 22 22 20 19 18 19 18 13 8 7 6 7 8 10 13 16 19 20
11 9 7 6 6 9 10 10 9 8 8 6 6 7 6 6 6 7 7 7 7 7 7 6 6 6 5 5 4 4 4 4 5 6 5 6 6 7 8 8 8 8 8 8 8 9 9 9 9 10 10 9 8 7 6 6 10 16 19 18 19 20 21 19 18 19 21 22 22 21 21 19 17 15 15 13 10 6 4 1 1 3 6 9 11 14 16 18
10 8 7 7 7 7 6 7 9 10 9 4 5 8 8 7 6 6 6 6 7 7 6 6 6 6 5 5 5 5 6 5 6 6 7 7 7 7 7 7 8 8 8 8 8 9 10 10 9 10 10 9 8 7 8 10 13 18 20 20 20 20 20 18 17 18 18 19 19 18 17 13 12 12 10 6 2 2 3 4 2 5 8 9 11 13 14 16
7 6 6 6 6 6 4 2 4 7 7 3 4 7 8 8 7 6 6 6 6 6 6 6 6 6 6 6 6 6 6 5 6 7 6 6 7 7 7 8 8 8 9 9 8 9 10 10 10 10 10 9 9 10 12 14 14 17 19 19 20 19 18 18 16 16 16 16 15 15 13 11 11 10 7 3 2 3 5 4 4 6 9 11 14 15 17 17
4 3 3 6 6 7 5 3 3 2 2 5 6 6 7 7 7 7 6 6 5 5 5 5 5 6 6 6 7 7 6 6 6 7 7 7 7 7 8 8 8 9 9 8 9 9 10 10 10 10 10 10 12 12 13 15 15 15 15 17 19 18 17 18 16 13 13 12 10 11 10 10 10 5 5 3 1 4 4 4 6 9 11 15 17 18 18 18
4 1 1 4 6 7 6 4 4 4 4 5 7 7 7 7 7 7 6 6 5 5 5 5 6 6 7 7 7 8 7 7 8 8 8 8 8 8 8 8 8 9 9 9 8 9 10 10 10 11 11 10 11 12 13 15 15 13 14 16 16 16 16 15 12 9 7 6 5 7 10 10 6 3 5 1 5 6 7 9 12 14 16 19 20 19 19 20
4 2 2 2 4 6 5 3 2 4 4 4 5 7 8 8 7 7 7 7 6 6 6 6 7 7 7 7 8 8 8 9 9 9 9 9 9 8 8 8 9 9 10 10 9 9 10 10 10 11 11 11 10 12 13 14 14 14 15 15 13 13 11 8 6 4 4 4 5 7 10 10 5 6 6 5 9 8 11 15 17 19 21 23 22 20 22 23
4 2 3 2 3 5 4 3 3 3 3 2 3 5 6 8 8 8 8 7 7 7 7 8 8 8 8 8 9 9 9 9 9 8 9 9 9 8 9 9 10 10 10 10 10 10 10 10 10 10 11 11 11 12 12 13 13 14 16 15 12 8 5 5 4 6 8 8 8 9 9 6 1 4 6 7 10 12 16 19 20 23 25 24 22 23 25 27
4 3 3 3 4 5 5 4 4 3 2 1 2 2 4 5 7 8 8 8 8 8 9 9 9 8 8 8 9 9 9 9 8 8 9 9 9 9 10 10 10 10 9 10 11 11 11 10 10 10 11 11 11 12 11 12 14 14 14 13 10 6 5 8 8 11 13 11 9 9 7 2 2 4 6 8 12 16 19 22 25 26 26 25 25 27 29 31
5 5 5 7 8 8 7 7 6 5 4 4 4 3 3 3 4 5 6 6 7 7 8 8 8 8 8 8 8 9 8 8 8 8 9 9 9 9 9 10 10 9 10 11 12 11 11 11 10 10 10 10 10 11 11 12 12 11 10 8 8 9 10 12 12 13 12 10 11 10 6 3 4 9 11 12 16 20 24 27 28 27 26 26 28 30 32 34
7 8 9 10 10 9 9 8 7 7 7 7 6 6 5 4 3 3 3 3 3 4 5 6 6 7 7 7 8 8 8 8 8 9 9 9 10 9 8 8 9 10 11 11 11 11 11 10 9 9 9 9 9 10 12 10 7 6 6 5 8 11 12 11 11 11 11 11 13 11 5 5 9 16 19 19 22 25 28 28 28 27 27 28 30 32 34 34
11 11 12 12 11 10 9 8 6 6 7 7 7 6 6 5 4 3 2 2 2 3 4 4 5 6 6 7 8 8 8 8 8 8 9 10 11 11 11 10 9 10 10 10 10 10 10 8 7 7 8 9 8 10 10 7 5 6 6 9 11 13 15 14 12 12 14 16 15 11 6 8 15 21 24 25 27 28 28 28 28 28 29 30 31 32 31 29
13 12 12 11 9 8 8 6 5 5 6 7 6 6 5 4 4 3 2 2 2 3 4 5 6 7 7 7 7 7 7 7 6 8 10 11 12 13 12 11 10 10 9 10 10 8 7 6 5 6 8 8 7 9 10 7 8 9 9 13 15 16 18 18 17 17 18 17 15 14 12 11 17 23 25 26 26 28 29 29 29 30 31 31 31 30 27 24
13 12 11 9 7 6 6 5 4 4 5 6 6 5 4 3 2 2 2 1 2 4 5 6 6 7 7 7 6 6 7 9 9 10 11 12 13 12 11 10 10 10 9 8 8 7 6 6 6 8 7 6 6 8 9 9 11 12 12 16 18 19 22 22 23 20 16 16 16 17 15 13 17 22 24 25 27 29 30 31 31 32 31 30 28 26 23 20
12 10 9 8 7 6 6 6 6 5 5 6 6 5 3 2 0 1 2 1 3 4 5 6 6 7 8 8 8 9 11 13 12 12 12 12 11 10 9 9 9 9 9 8 8 6 6 8 10 10 6 3 5 8 9 10 12 14 15 18 20 23 26 23 20 17 15 15 13 12 12 12 18 23 25 27 28 29 31 32 33 32 32 29 26 23 19 17
10 9 7 7 6 6 6 7 7 6 6 6 6 5 4 3 0 1 1 3 4 5 6 7 7 9 10 10 10 11 13 13 12 11 11 10 8 8 8 8 7 8 8 8 8 8 9 11 10 9 8 6 6 7 11 13 15 18 19 21 22 24 23 18 14 13 13 12 10 8 12 16 22 26 27 28 29 30 31 32 32 32 31 28 25 21 18 15
9 7 7 6 6 5 6 6 6 6 7 7 6 5 5 4 2 0 3 4 5 6 7 8 8 7 8 8 7 7 8 9 8 8 7 7 7 6 6 6 6 7 8 8 8 10 11 10 7 7 7 7 8 9 14 16 16 19 20 21 20 18 18 15 11 10 11 13 15 15 19 23 24 24 24 26 28 30 31 31 31 30 28 25 23 19 16 14
7 6 5 4 4 4 4 4 4 5 7 7 6 6 6 6 4 3 4 5 6 5 4 4 3 3 3 3 3 4 6 6 3 4 6 6 7 6 7 8 9 9 9 8 8 10 11 9 6 6 7 9 12 14 17 17 16 16 16 17 16 14 16 14 8 10 14 19 23 22 22 23 22 22 23 26 29 29 29 28 27 25 23 22 19 17 15 14
6 5 4 3 2 2 2 2 2 3 6 6 6 7 7 6 6 6 5 5 4 4 4 3 3 3 3 4 4 4 7 7 3 4 6 5 7 8 9 8 7 7 7 7 10 10 10 10 9 10 12 13 14 14 16 15 13 13 14 14 13 12 13 13 13 16 19 23 26 24 22 21 21 23 25 27 29 28 26 24 21 20 19 18 17 16 15 15
5 3 3 2 1 1 2 1 1 2 4 6 6 7 6 5 6 6 6 3 4 5 4 4 4 3 2 6 7 5 8 9 5 5 5 6 8 8 7 7 5 6 7 7 8 9 10 11 11 11 11 13 14 14 15 12 9 11 12 11 11 11 13 16 20 23 26 26 22 17 15 15 19 24 25 26 27 25 23 20 18 17 16 16 16 16 17 18
4 2 2 0 1 1 2 2 2 2 4 5 6 6 6 5 6 6 5 2 4 5 3 3 3 2 4 7 8 7 8 6 5 5 6 7 8 7 7 7 6 7 7 6 6 7 7 7 9 9 11 14 14 13 12 10 11 12 10 11 13 16 18 19 20 22 26 24 15 9 7 6 14 20 21 23 25 23 22 18 16 16 16 16 16 17 19 21
4 3 3 2 2 3 3 3 2 3 4 4 5 6 5 5 6 7 3 2 2 3 2 2 3 4 6 8 8 8 6 4 5 5 7 8 8 8 7 7 7 7 6 6 6 5 3 5 8 10 12 13 10 9 9 11 14 13 11 14 16 18 19 19 18 18 18 18 17 15 10 6 10 15 19 20 23 22 21 19 16 16 17 17 18 19 21 22
5 5 5 5 5 4 4 3 3 4 4 4 5 6 5 5 6 5 1 3 1 2 2 2 3 6 8 8 9 7 5 5 5 6 8 9 9 9 8 7 8 8 7 6 4 2 3 6 8 10 13 10 6 8 11 13 15 13 15 17 17 18 18 17 15 15 16 19 23 21 12 10 9 12 18 19 19 20 20 19 17 16 17 17 19 20 21 23
6 7 7 7 6 5 4 4 4 4 4 5 6 6 5 5 6 3 2 3 2 2 3 3 3 6 8 8 7 6 6 6 5 7 9 9 9 9 8 7 9 9 7 5 4 4 6 7 8 10 11 7 6 11 13 16 16 15 18 18 18 19 17 14 13 16 16 14 20 20 11 6 6 11 17 17 18 21 21 21 18 17 17 17 18 20 21 23
8 8 8 7 7 6 5 5 5 5 5 6 5 4 5 5 4 1 3 2 1 2 3 3 4 6 7 6 5 6 7 7 7 8 9 9 10 9 7 7 8 6 5 6 6 6 7 7 8 10 8 5 8 12 15 17 16 17 18 18 18 17 16 15 13 14 11 6 13 12 11 6 3 13 17 16 18 22 24 24 20 19 19 19 20 21 21 22
8 8 8 8 7 6 5 6 6 5 6 5 4 4 5 4 2 2 2 1 1 2 3 2 6 7 5 5 5 7 7 7 8 8 9 10 11 10 7 7 7 3 4 6 7 5 5 6 8 8 6 7 11 13 16 17 16 17 17 18 20 17 17 14 9 8 5 4 7 3 8 18 6 14 20 19 20 22 23 23 21 21 22 23 24 25 24 25
8 7 7 7 6 5 5 5 5 4 5 4 4 4 4 1 1 3 2 1 1 2 2 3 7 5 3 4 6 7 7 7 9 9 9 10 9 8 7 8 8 2 2 8 7 5 6 6 7 6 6 11 13 14 16 16 16 16 14 19 22 19 18 10 2 4 1 3 6 6 18 26 10 10 17 21 22 23 23 22 22 23 24 25 27 28 30 32
6 5 5 5 4 3 3 3 3 4 4 4 4 4 2 2 3 4 2 0 2 1 3 5 6 4 3 5 7 8 7 8 10 10 10 11 10 11 11 12 12 7 8 11 8 8 7 5 4 4 8 13 14 16 17 15 14 14 14 18 16 11 12 5 0 2 3 7 12 18 25 21 12 15 20 23 24 23 22 22 22 24 25 26 29 31 34 36
4 4 3 3 2 1 2 2 3 3 4 4 4 2 2 3 3 3 2 1 1 1 4 3 3 3 4 6 8 9 7 7 9 10 10 11 12 12 13 13 12 10 10 9 8 9 7 4 2 4 9 12 14 19 17 14 11 10 14 16 8 3 4 3 3 3 3 10 21 27 24 13 12 18 22 23 22 20 20 21 22 24 26 28 31 33 36 38
3 3 2 2 1 1 1 2 3 3 3 3 3 2 3 4 3 3 2 1 1 2 2 2 3 2 4 6 7 8 7 7 8 7 8 10 9 8 11 12 10 11 12 9 9 9 5 3 4 7 10 10 14 17 15 12 8 8 14 11 4 3 1 3 4 3 5 14 25 27 16 7 7 11 16 19 19 18 18 19 21 24 26 29 32 35 39 42
3 2 2 1 1 1 1 2 3 3 4 3 4 3 3 4 3 2 1 1 1 1 2 3 3 2 3 5 6 8 9 6 6 5 5 8 9 9 13 14 11 13 13 10 10 7 2 4 7 9 8 7 14 17 14 12 6 8 14 9 7 10 7 7 10 14 14 13 17 18 12 10 11 12 16 18 19 18 18 19 22 25 29 32 36 39 41 44
2 2 1 1 1 2 2 3 4 4 4 4 4 3 2 3 2 1 1 1 1 1 2 3 2 2 2 4 5 8 8 6 5 4 5 9 10 12 15 14 13 15 14 11 10 7 5 7 7 8 5 5 14 17 14 11 9 12 13 10 11 12 9 10 13 17 14 6 9 14 13 13 12 12 17 18 18 18 18 20 24 28 33 36 38 40 42 45
2 2 2 2 3 3 3 4 4 4 4 4 4 2 3 3 1 1 1 1 2 2 2 2 2 2 2 4 5 6 6 5 4 3 5 8 9 11 13 13 14 15 14 11 9 8 11 11 7 4 3 6 15 17 12 9 12 14 11 11 13 7 6 10 7 7 6 3 8 15 18 19 14 11 15 18 17 18 18 21 26 31 35 37 38 40 43 47
4 4 4 3 3 3 3 3 4 4 4 3 3 3 3 3 2 1 1 2 3 3 2 2 3 3 3 5 6 6 5 3 2 2 3 6 8 9 9 10 13 14 14 12 8 8 12 12 7 3 4 10 15 15 12 10 12 14 11 9 9 6 8 10 6 4 5 4 6 11 18 23 18 12 13 16 18 21 23 27 30 33 37 38 40 43 46 50
4 4 3 2 2 3 3 4 4 4 4 3 4 5 4 3 3 2 3 3 4 3 3 3 4 3 5 6 6 7 6 4 3 3 3 6 8 8 8 10 12 14 14 13 9 8 9 7 6 5 9 15 17 14 14 14 14 14 11 8 9 9 10 11 12 10 7 5 6 7 9 14 15 14 13 16 19 23 27 30 32 35 39 41 42 46 50 54
4 3 2 2 3 3 4 4 4 3 3 3 5 5 4 4 4 4 4 4 4 3 4 5 5 4 6 6 5 6 6 5 5 4 4 7 8 8 10 11 13 14 14 14 12 11 8 5 10 14 16 18 17 14 14 15 13 11 11 12 15 17 15 15 19 19 13 6 4 4 6 13 19 19 20 21 20 21 26 30 35 39 41 42 44 48 53 57
2 1 1 2 3 3 3 3 3 3 3 4 5 6 5 5 5 4 4 4 4 4 4 5 5 5 6 6 6 6 5 5 6 6 7 9 9 8 11 13 14 14 14 14 12 12 12 11 15 18 20 20 16 13 13 12 10 9 12 18 22 25 23 15 13 17 17 12 8 6 8 18 26 24 25 25 20 21 29 35 40 42 42 44 48 52 56 57
1 1 2 3 4 4 4 4 4 5 5 5 6 6 6 6 5 4 4 4 4 4 5 5 5 6 6 6 7 7 5 6 7 7 7 8 8 9 11 13 14 14 15 14 12 14 16 14 15 17 20 19 15 13 13 11 10 11 16 25 29 29 24 15 10 15 18 18 19 14 9 16 24 22 22 23 22 28 37 41 43 43 44 48 52 55 55 53
2 3 3 4 4 5 6 5 5 6 6 6 6 7 6 6 5 4 4 4 4 5 5 5 6 6 6 6 7 7 6 6 7 8 8 9 9 11 12 12 14 15 15 14 13 15 14 10 14 21 21 18 14 13 13 12 14 18 25 31 31 28 24 19 19 20 19 21 23 13 6 14 20 18 20 25 30 36 41 44 44 45 48 52 53 53 51 49
4 4 4 4 4 5 5 4 5 6 6 7 7 7 6 5 4 4 4 4 5 5 6 6 6 6 6 7 7 7 7 6 7 8 9 10 10 10 11 13 14 14 14 13 13 16 12 9 15 18 15 15 14 11 13 18 23 28 31 31 29 28 25 21 23 21 15 19 20 9 7 19 24 24 29 35 38 41 43 44 46 48 52 52 51 51 50 49
4 3 3 4 5 5 4 4 5 5 5 6 7 6 5 4 4 5 5 6 6 7 7 7 7 7 7 7 7 7 8 7 7 8 9 10 9 10 12 13 15 15 14 13 15 17 14 12 14 10 4 7 10 10 17 26 31 33 33 31 28 28 25 24 24 18 12 17 20 14 16 28 33 33 38 42 42 44 45 46 49 51 51 50 50 52 52 52
3 3 3 4 5 5 5 5 5 5 5 5 6 5 5 4 5 6 6 6 7 7 7 7 7 7 7 7 7 7 9 9 7 8 10 11 11 11 12 14 15 15 14 15 16 17 15 15 15 11 8 10 15 19 23 26 29 33 33 29 26 26 27 27 25 23 22 22 24 27 29 33 37 40 43 44 43 44 47 50 52 51 49 50 53 54 54 54
2 3 4 4 4 4 4 4 5 6 5 4 4 4 5 5 5 6 7 7 7 7 7 7 7 7 6 7 8 8 9 9 8 8 10 11 13 14 14 15 15 14 15 16 16 16 17 18 17 15 14 15 19 25 25 24 27 29 29 27 27 27 29 31 29 31 29 21 22 32 33 32 39 44 44 44 44 46 52 54 51 48 49 53 55 55 56 55
2 2 3 3 3 3 4 4 5 5 4 4 4 5 5 6 6 7 7 8 7 7 7 7 7 7 7 8 8 9 9 9 9 10 11 12 14 15 16 17 16 15 16 16 15 16 17 18 18 19 20 21 24 25 25 25 27 28 26 26 28 28 30 32 32 32 29 23 25 33 33 34 41 44 42 43 46 50 52 50 46 47 52 56 57 57 57 56
3 3 4 4 3 3 3 4 4 4 3 3 4 5 6 7 7 8 8 8 7 7 7 6 6 7 8 8 8 9 10 10 11 11 12 13 14 14 16 16 15 17 17 16 16 17 17 17 19 22 26 29 28 26 26 26 27 29 28 27 28 29 30 31 30 29 28 27 29 31 32 37 42 41 42 47 49 49 47 44 45 50 55 57 56 56 56 54
3 3 4 3 2 2 3 3 3 3 3 4 5 6 7 8 8 8 8 8 6 6 7 6 6 8 8 8 9 10 11 12 12 13 14 14 14 15 15 15 15 17 17 15 16 17 18 19 20 24 32 33 29 28 29 27 26 30 29 24 23 24 26 28 29 28 27 28 30 31 35 41 43 43 47 49 47 44 43 44 49 52 54 54 54 54 53 49
3 3 3 3 2 2 2 3 3 3 3 5 6 7 8 8 8 8 7 7 6 6 6 5 6 7 7 8 10 11 12 12 13 14 15 15 14 14 14 14 14 15 16 16 16 18 19 20 22 25 30 33 32 30 29 28 30 30 25 20 20 23 26 29 29 28 29 31 33 33 36 41 45 48 49 46 42 42 46 50 52 53 53 52 51 51 49 45
2 2 2 2 2 3 3 3 3 3 5 6 7 7 8 8 8 7 6 6 5 5 5 6 7 7 8 9 11 12 13 13 13 14 14 14 14 14 13 12 13 14 16 16 17 19 20 21 23 22 24 32 34 29 27 29 26 22 20 23 27 29 29 31 31 30 31 31 31 33 37 44 48 47 44 40 41 47 53 55 54 53 53 51 48 47 45 43
Wind_Direction
235 227 229 233 238 240 240 240 241 240 221 217 226 227 222 216 214 218 220 212 210 202 182 189 197 177 168 167 165 180 195 205 219 225 237 249 249 246 244 243 244 246 248 251 248 246 249 251 255 255 257 261 268 279 285 286 288 286 283 281 281 285 289 285 292 301 302 288 278 277 281 283 285 289 291 292 294 297 298 304 313 321 334 328 314 310 316 308
151 192 216 225 231 231 227 216 207 195 184 185 173 168 186 188 188 197 204 189 173 167 162 187 191 160 157 164 169 192 210 225 240 243 241 242 240 235 236 240 241 245 248 250 253 254 258 258 257 256 259 267 276 279 282 285 288 289 284 281 283 290 290 263 263 279 282 277 271 269 275 284 293 297 294 294 299 302 305 314 321 322 163 302 297 296 304 299
130 145 180 195 207 216 209 199 194 180 170 168 133 123 144 162 173 179 182 165 141 141 151 171 169 157 162 171 184 202 213 225 231 227 233 230 231 238 241 246 248 254 256 258 263 266 269 270 268 267 268 275 281 279 281 280 284 290 282 279 288 298 291 267 257 266 268 269 273 277 285 293 297 299 300 303 304 307 316 322 320 292 245 272 284 287 288 287
129 134 148 165 190 204 196 187 181 169 158 162 145 127 126 142 156 159 154 148 149 151 149 153 158 165 174 182 193 201 206 217 213 221 238 237 240 249 251 256 259 261 264 269 274 275 278 276 276 276 276 280 280 278 279 278 284 285 280 282 292 295 289 285 273 269 268 269 276 287 297 300 299 302 306 306 306 316 331 322 305 291 276 261 265 275 278 275
119 116 125 163 193 192 182 177 171 165 159 165 163 142 136 142 143 143 143 145 155 157 156 160 166 176 182 188 196 203 216 234 231 230 239 241 250 261 266 268 268 272 276 280 280 280 281 277 276 273 274 276 270 272 277 286 294 288 284 289 294 290 288 293 288 279 280 283 291 299 301 300 303 308 309 309 312 320 318 298 290 290 279 256 248 254 263 266
116 108 109 135 178 184 183 186 181 170 158 160 172 162 159 167 158 150 150 157 166 167 170 176 183 191 197 205 212 224 236 243 236 236 248 261 267 272 275 276 277 281 283 285 286 283 278 272 269 265 266 265 262 268 264 263 272 277 282 285 288 288 289 293 286 280 285 290 297 302 300 304 310 312 317 322 318 299 264 273 352 276 256 249 244 245 255 265
121 118 117 122 140 156 173 195 197 178 161 157 177 170 173 182 175 163 165 172 179 183 184 191 200 208 215 222 227 236 243 249 250 253 261 266 272 276 280 285 286 288 287 288 288 283 278 273 272 273 277 277 276 274 265 256 251 265 280 285 286 286 287 291 287 286 292 294 299 300 302 315 317 318 338 349 281 219 162 138 168 242 252 259 263 266 270 274
127 126 137 146 149 150 143 174 193 164 158 189 192 174 177 181 178 174 179 182 186 190 190 196 208 214 222 229 234 242 247 250 257 267 272 272 277 282 286 289 289 289 290 292 288 282 280 284 288 290 294 294 286 276 273 274 267 270 284 290 289 289 295 299 298 299 298 297 299 300 313 329 324 337 17 53 168 168 161 180 231 260 275 285 288 289 289 289
154 129 145 170 185 196 195 213 225 186 195 217 210 195 181 177 180 184 188 190 191 192 193 202 210 215 225 232 240 247 252 257 264 273 277 278 281 282 284 286 288 291 293 292 287 288 291 296 301 300 301 296 288 284 278 280 282 285 290 290 292 298 303 301 301 301 294 295 297 303 332 345 328 353 56 55 172 195 223 270 285 285 291 300 303 299 297 300
189 190 158 171 184 202 212 219 223 234 236 220 216 212 194 183 183 187 192 195 195 196 201 210 215 223 233 241 251 254 260 271 272 273 277 282 284 283 284 288 293 295 294 287 283 294 302 304 306 303 301 295 290 288 282 282 289 294 294 291 296 303 301 298 301 299 292 298 305 325 14 18 349 93 97 335 239 237 274 287 292 297 304 310 309 304 303 304
203 214 177 170 173 180 194 214 230 230 230 219 212 210 206 202 198 198 202 202 205 210 217 226 231 238 246 254 262 262 268 275 273 276 280 283 284 285 290 295 297 294 289 287 290 302 306 305 305 302 299 296 293 290 290 293 296 301 299 297 304 307 306 311 314 313 327 347 346 4 35 32 31 123 136 233 252 268 284 288 298 304 306 308 305 302 303 305
207 192 164 158 148 142 152 191 228 236 245 230 197 195 200 206 211 214 215 218 222 229 234 242 245 250 256 260 263 265 269 268 269 275 277 280 284 289 295 296 296 292 289 292 299 306 305 303 301 298 295 295 296 294 295 297 299 304 303 305 314 315 324 348 358 348 347 356 357 8 23 22 47 163 185 236 266 282 288 293 299 300 301 301 297 298 303 306
186 162 151 136 117 112 123 152 179 197 232 218 155 157 176 196 211 216 221 227 232 238 243 249 252 255 256 257 259 261 262 264 269 273 275 281 286 292 295 294 293 291 292 297 303 306 304 301 299 298 296 296 299 296 295 296 299 303 301 304 312 317 343 352 358 347 340 345 346 352 357 334 241 258 258 262 277 284 289 293 294 295 296 295 295 299 303 306
164 145 133 120 109 106 109 115 124 132 131 118 115 118 133 161 187 207 220 227 235 242 247 250 251 252 252 251 254 257 262 269 274 275 278 284 285 291 294 295 297 295 296 299 301 302 300 297 298 298 296 301 303 296 300 305 302 302 300 309 323 329 343 349 346 336 332 333 328 331 324 246 264 289 281 274 276 281 286 289 291 292 292 293 295 299 302 304
146 133 124 115 109 107 103 101 105 109 109 104 102 104 109 118 133 160 186 207 227 237 244 248 248 250 252 252 257 262 266 272 277 278 280 285 287 291 291 290 291 289 292 294 294 295 294 295 299 300 302 309 307 301 308 313 314 315 309 325 335 326 329 336 332 323 319 319 314 313 285 238 282 292 287 285 283 284 287 289 290 289 289 291 292 295 299 302
135 129 122 114 109 106 99 95 96 96 96 94 93 94 96 98 104 118 129 156 201 224 238 244 247 255 259 258 261 268 271 273 277 282 287 290 292 296 299 298 291 286 289 290 290 291 292 298 307 309 316 323 321 316 319 331 358 356 334 325 323 313 313 316 313 308 309 311 307 301 279 260 284 290 290 291 290 290 291 289 287 286 286 288 289 293 297 298
131 127 119 114 110 104 99 95 87 84 85 84 82 83 88 90 92 101 111 142 212 240 249 255 260 266 269 266 270 274 272 277 284 291 295 294 295 300 302 302 299 292 289 290 291 294 299 308 321 329 335 341 344 334 328 339 343 335 322 313 307 303 305 305 307 310 308 307 302 297 289 277 284 289 290 291 291 292 291 289 286 286 287 289 292 295 297 296
130 125 118 113 108 102 99 96 85 76 73 72 71 71 79 95 98 121 142 187 260 266 269 272 271 272 272 277 293 290 280 285 291 294 293 292 296 299 297 296 295 293 292 294 294 295 304 314 329 341 351 358 354 341 328 323 319 313 305 302 301 300 303 306 312 315 311 304 298 293 290 284 285 287 287 289 290 290 289 287 287 288 290 293 296 298 298 295
129 124 118 111 104 97 93 91 85 74 67 66 65 62 63 70 178 187 184 271 290 287 286 283 280 282 283 291 301 293 287 288 290 293 293 293 297 297 297 297 299 301 302 304 304 305 316 329 338 338 340 340 328 324 316 311 308 303 297 295 295 296 301 308 312 313 313 307 296 290 291 288 285 284 285 286 285 284 283 283 284 287 290 293 296 297 296 292
130 125 120 114 105 96 90 89 83 70 63 60 58 56 45 21 332 180 327 326 311 302 296 289 286 286 288 293 294 289 288 290 291 292 293 296 298 300 302 301 302 302 303 309 316 320 326 335 338 327 322 327 322 304 293 292 292 291 289 288 291 295 301 310 310 307 311 304 294 300 303 293 286 283 282 281 280 278 276 277 278 282 285 288 291 291 289 287
132 129 124 121 115 103 94 90 82 66 55 53 50 46 33 23 42 79 339 336 317 304 296 291 289 286 289 296 299 298 298 301 303 298 296 303 305 306 304 298 297 299 305 316 323 324 322 325 327 321 328 333 326 303 287 285 286 287 288 290 295 299 306 316 313 299 298 293 294 304 304 295 287 281 277 276 275 273 272 272 273 276 280 283 285 286 287 290
134 133 127 123 125 117 107 96 83 60 45 43 41 32 24 18 16 357 345 341 325 317 314 310 315 313 313 328 335 339 338 343 346 310 308 313 316 318 309 303 305 311 317 315 314 317 317 323 329 325 319 309 305 297 291 295 296 295 299 302 307 312 313 315 306 292 294 296 301 307 301 291 282 274 270 271 270 269 269 269 270 272 275 279 281 283 289 296
137 137 126 120 129 141 148 107 70 55 35 32 29 21 15 7 4 358 352 354 2 26 38 49 69 72 64 21 355 347 345 347 339 307 311 316 322 323 316 313 313 315 316 303 303 310 312 315 316 310 304 300 301 298 297 302 303 308 318 320 320 325 321 312 305 302 300 300 305 305 293 279 273 269 265 265 265 266 266 266 268 270 272 275 279 284 291 297
146 143 129 113 100 185 214 297 14 35 14 17 19 10 3 353 355 354 350 23 67 65 70 86 82 75 37 1 348 336 332 333 327 318 320 321 327 330 324 323 316 309 309 300 300 307 308 306 309 311 309 310 310 305 306 312 322 333 337 336 331 326 320 312 310 309 305 304 306 302 286 266 260 260 259 261 263 263 263 263 266 269 273 277 281 287 292 295
167 174 169 162 341 308 292 307 326 348 350 2 5 355 346 339 345 349 345 81 84 60 75 76 50 26 356 351 347 340 336 340 339 331 334 339 343 345 335 329 323 322 324 319 313 310 305 304 315 321 318 316 312 309 316 328 340 347 343 338 331 323 319 315 313 309 307 311 311 306 306 257 248 253 254 258 262 263 264 264 265 267 272 278 283 288 291 295
203 221 237 271 297 316 319 312 316 330 336 344 343 334 330 334 340 343 341 151 102 45 51 26 25 5 349 348 347 351 357 359 349 347 357 359 356 352 346 342 338 342 341 331 328 320 321 331 329 328 325 323 320 330 350 348 345 347 336 330 327 321 320 319 318 310 305 308 303 301 297 246 239 251 252 256 258 261 265 266 266 268 273 279 285 291 295 301
236 249 261 277 292 308 311 306 312 317 319 318 318 319 323 332 332 330 20 135 76 28 30 2 15 357 350 353 354 3 17 4 355 6 7 359 355 355 354 351 346 349 351 345 344 350 10 355 339 337 335 327 332 356 2 351 345 341 330 329 327 325 326 325 322 309 305 304 303 311 300 249 229 236 247 254 256 260 266 266 267 270 276 283 289 295 301 306
261 268 273 284 293 300 300 296 299 301 303 300 305 315 315 322 323 306 130 107 68 53 30 4 358 347 350 356 357 10 20 12 5 4 3 359 358 0 359 358 353 351 1 20 32 26 8 358 346 340 338 331 346 358 353 345 343 335 331 332 327 328 329 325 317 304 308 305 304 328 344 269 214 213 236 248 256 263 267 268 271 274 279 285 289 295 301 304
272 275 280 287 288 291 292 288 294 297 294 293 297 304 302 310 312 226 129 111 127 28 12 3 350 346 356 1 6 16 11 10 9 0 0 359 1 6 6 9 8 15 53 53 33 15 358 352 345 337 338 352 353 350 345 341 338 330 330 330 325 331 332 324 314 304 305 292 294 330 20 5 211 207 225 237 250 261 267 272 279 282 285 290 293 296 297 298
280 281 283 285 282 286 289 289 296 294 285 285 282 287 298 305 292 142 111 145 189 9 11 2 354 356 7 8 17 22 12 8 9 5 5 2 4 11 15 20 25 61 89 30 4 358 359 353 342 333 335 349 345 342 342 339 336 335 335 331 326 334 339 329 319 319 309 286 291 291 352 344 323 209 222 232 246 256 263 271 279 285 290 295 297 299 300 301
289 289 286 285 284 285 288 289 291 279 273 269 268 288 294 290 103 117 114 170 202 5 9 357 1 15 22 10 23 25 17 14 12 8 7 7 7 9 17 22 22 36 354 0 359 1 9 352 333 327 323 333 334 335 340 341 340 342 342 340 336 338 345 345 355 7 1 273 304 298 317 326 317 225 231 235 246 254 260 271 278 284 290 296 301 307 311 315
296 293 287 286 284 277 276 277 270 257 259 261 273 293 252 176 100 105 111 148 209 330 359 2 12 38 44 30 33 28 24 21 11 360 4 12 9 11 21 19 18 16 352 358 4 357 1 351 327 317 318 325 327 331 342 350 347 345 347 349 351 349 349 358 117 337 249 257 294 305 312 312 284 270 266 254 255 257 264 275 280 286 294 302 308 314 318 321
295 288 284 276 260 248 252 254 256 251 258 270 278 276 187 160 115 124 124 82 188 355 2 15 36 53 47 37 34 33 33 21 5 355 2 12 11 18 26 21 22 23 4 0 0 354 4 15 342 319 322 326 334 339 347 354 348 351 356 355 1 26 0 315 286 310 266 278 298 306 308 292 262 273 272 265 263 263 271 280 286 294 301 308 313 317 319 320
294 279 272 263 243 243 250 250 258 258 266 274 255 215 154 137 138 155 132 71 67 27 26 76 87 82 44 31 30 27 23 19 14 4 359 4 9 20 21 18 22 22 15 11 1 359 9 4 333 327 327 330 344 348 347 346 339 345 357 359 358 11 47 228 282 301 277 291 303 309 304 270 256 261 260 265 269 274 283 290 296 303 306 312 316 318 319 320
314 290 276 269 248 259 268 263 267 266 265 251 215 195 150 138 154 154 92 54 57 65 120 111 97 107 47 27 26 15 8 17 21 4 347 359 14 18 10 12 17 15 18 13 359 1 338 319 327 327 322 327 348 349 341 338 334 328 342 351 337 328 298 266 283 284 283 291 302 304 294 283 279 259 256 266 272 277 287 297 305 311 314 318 321 322 322 323
342 317 291 265 254 261 264 261 264 258 247 228 211 202 161 149 156 125 44 52 65 71 139 125 101 106 49 17 17 6 359 7 9 356 355 0 10 11 5 8 9 8 15 15 6 2 330 323 335 333 318 327 345 344 332 326 326 328 335 337 329 321 300 294 289 286 290 285 286 293 292 291 282 264 263 266 269 275 284 299 307 312 317 320 323 324 324 324
317 287 266 252 253 256 253 251 249 242 232 218 216 210 164 155 155 132 66 66 77 73 113 118 73 75 45 8 5 358 354 2 353 351 9 7 5 3 1 5 2 0 7 12 10 356 332 327 344 356 317 328 338 336 324 311 314 324 330 330 329 321 307 310 294 293 311 281 275 286 286 284 275 258 257 255 260 270 280 296 305 310 317 322 325 326 325 325
281 263 256 254 253 247 238 234 230 225 219 209 198 177 156 150 144 142 105 71 86 78 61 69 63 55 28 5 359 1 12 24 352 339 3 7 2 357 1 5 358 354 359 3 9 1 337 325 340 7 310 325 336 334 329 315 310 316 321 331 335 319 310 313 302 303 312 289 278 278 281 282 273 253 244 246 258 272 284 296 305 314 322 327 328 326 324 323
268 259 254 255 247 232 221 218 222 216 204 192 172 156 148 146 138 128 102 83 85 72 55 68 64 36 17 14 9 13 28 58 61 35 5 2 0 354 358 2 356 351 352 356 1 0 345 319 315 320 313 324 334 337 333 320 310 312 310 315 328 324 314 305 298 293 280 275 286 281 280 281 276 274 271 268 275 287 295 302 309 319 325 327 326 324 323 323
267 264 257 249 230 217 210 209 216 205 183 168 152 144 144 143 131 114 100 88 77 63 60 62 49 22 18 29 36 32 38 59 56 43 26 12 7 358 352 352 352 351 350 352 350 347 349 316 299 311 320 330 337 337 327 316 310 311 315 324 331 329 319 302 294 288 275 263 281 292 289 284 285 289 290 288 290 299 307 312 317 322 324 324 323 322 323 323
281 274 234 219 201 191 183 177 173 168 170 157 142 143 143 134 121 109 97 82 67 63 62 55 41 33 34 44 48 38 45 56 38 33 26 10 4 356 347 343 347 350 347 345 342 341 343 324 305 313 327 335 339 331 312 300 293 300 325 334 332 326 318 303 291 288 279 268 268 274 283 287 289 289 288 286 290 307 318 321 323 323 323 323 322 322 322 321
243 185 181 175 169 159 146 146 151 156 165 156 140 140 135 121 112 103 89 72 66 62 59 54 49 53 58 62 55 42 47 46 28 25 18 7 0 350 346 344 343 344 343 342 342 342 340 326 311 316 326 332 337 327 307 293 284 290 310 320 321 320 311 289 277 289 284 278 280 279 275 285 289 288 286 285 293 310 319 321 322 322 322 321 319 318 318 317
156 157 160 162 159 146 137 150 157 155 158 152 138 134 125 115 105 92 80 74 70 67 70 68 66 72 73 68 56 41 39 32 17 12 7 4 358 347 345 346 341 341 343 342 341 342 343 330 318 321 324 328 332 321 301 290 295 301 308 315 318 317 307 287 280 284 281 280 284 281 272 285 289 290 292 296 303 311 314 315 316 317 316 316 315 316 317 317
151 147 150 157 151 134 131 151 154 146 149 145 134 128 118 108 97 87 82 80 78 81 87 81 76 77 70 58 47 33 29 22 8 4 1 358 352 343 341 344 343 342 341 340 339 340 344 336 324 325 328 332 334 322 302 304 310 311 313 319 321 315 306 293 286 283 274 276 278 260 259 285 291 297 302 306 310 311 311 310 311 312 313 314 316 318 320 320
146 141 150 156 146 131 131 141 136 133 142 138 130 124 112 97 91 91 89 85 86 90 93 88 79 71 59 46 33 24 21 17 7 360 354 352 350 344 340 342 344 343 339 339 338 338 341 338 330 327 318 316 315 309 308 312 314 314 316 320 320 311 302 295 293 286 272 276 275 259 270 287 295 303 308 312 314 312 310 310 312 314 315 316 318 320 321 323
129 135 157 156 141 130 131 132 125 126 135 132 125 116 103 94 93 93 92 93 97 95 91 86 75 63 52 36 24 19 16 13 9 358 351 351 351 347 342 342 344 344 343 340 336 335 338 336 331 320 296 290 293 300 308 310 309 312 317 319 315 306 298 295 292 285 282 285 281 278 286 295 302 309 313 316 316 314 312 312 314 315 316 318 320 321 322 324
127 147 155 142 125 123 126 124 122 128 135 129 116 103 93 98 102 100 99 102 105 100 89 78 65 53 42 28 21 18 14 12 8 359 354 351 350 348 343 342 344 346 343 338 334 333 332 331 330 321 311 306 304 308 312 313 312 314 315 313 309 304 297 292 289 287 287 284 281 289 296 301 306 312 317 317 316 313 311 312 314 315 316 319 321 321 320 321
127 145 137 119 112 116 122 126 128 131 133 113 101 98 99 107 110 110 110 108 103 96 82 69 55 42 33 25 20 16 13 11 6 2 358 352 350 347 342 340 342 343 341 337 333 331 330 331 329 323 317 315 315 318 321 320 317 313 309 305 303 300 296 293 291 289 286 279 283 295 300 301 307 314 316 314 312 310 311 313 313 313 315 319 320 318 317 318
103 115 114 109 113 119 125 135 132 124 116 102 102 107 111 115 114 114 114 107 97 87 73 58 42 33 27 20 16 15 12 7 3 0 355 350 349 345 341 340 339 339 339 336 333 333 332 331 329 323 318 318 323 327 327 323 317 313 311 306 302 300 297 294 292 291 286 282 287 294 297 300 307 313 313 311 311 311 311 312 312 313 316 317 316 315 315 317
97 103 108 107 118 138 142 138 124 110 106 111 115 115 118 120 118 114 110 102 91 76 62 46 30 27 23 14 13 14 9 3 360 355 350 348 347 344 341 340 339 338 338 337 333 332 332 329 327 324 319 320 329 332 327 324 317 314 315 312 306 303 300 297 295 293 288 286 290 294 297 302 308 313 313 313 312 311 311 311 313 315 315 314 313 313 315 316
103 104 115 121 138 163 153 131 119 118 121 120 117 117 121 121 116 111 103 95 84 65 52 37 26 23 16 10 12 10 4 359 355 351 347 345 345 344 340 339 340 338 336 336 331 329 330 324 324 326 319 320 331 332 326 325 319 314 318 319 312 309 305 302 299 294 291 292 295 298 301 305 312 315 314 313 312 311 311 312 314 314 313 312 313 314 314 313
106 113 127 139 164 162 141 125 123 126 126 121 117 118 118 115 111 108 100 91 78 58 40 27 23 18 11 10 9 4 358 354 351 347 344 340 339 341 340 339 341 338 332 333 329 326 327 323 325 329 318 318 330 333 325 323 318 315 322 322 315 311 307 304 300 295 295 296 297 301 304 309 313 314 312 311 311 311 311 312 313 313 314 315 315 314 312 309